GW4343 Weather Reports


time (UTC)temp
C
wind
direction
speed
KPH
gust
KPH
rain 1hr
cm
rain 24hr
cm
rain mn
cm
humidity
%
barometer
mb
20260906221509 24 217 4.8 16.1 0.00 0.00 0.00 30 1024.4
20260906221005 25 291 6.4 12.9 0.00 0.00 0.00 27 1024.3
20260906220503 24 298 0.0 9.7 0.00 0.00 0.00 29 1024.4
20260906220009 25 337 3.2 11.3 0.00 0.00 0.00 28 1024.5
20260906215504 24 255 1.6 19.3 0.00 0.00 0.00 28 1024.5
20260906215004 25 285 6.4 19.3 0.00 0.00 0.00 28 1024.6
20260906214509 25 191 3.2 20.9 0.00 0.00 0.00 27 1024.5
20260906214003 25 205 8.0 20.9 0.00 0.00 0.00 27 1024.6
20260906213504 25 119 4.8 17.7 0.00 0.00 0.00 28 1024.6
20260906213010 25 262 3.2 16.1 0.00 0.00 0.00 27 1024.6
20260906212505 25 90 4.8 14.5 0.00 0.00 0.00 26 1024.9
20260906212006 25 242 3.2 14.5 0.00 0.00 0.00 27 1024.9
20260906211510 25 283 3.2 12.9 0.00 0.00 0.00 27 1024.9
20260906211004 25 44 4.8 16.1 0.00 0.00 0.00 27 1024.9
20260906210505 25 293 6.4 17.7 0.00 0.00 0.00 26 1025.0
20260906210012 25 252 6.4 19.3 0.00 0.00 0.00 28 1024.9
20260906205506 25 252 8.0 19.3 0.00 0.00 0.00 28 1025.0
20260906205008 25 307 4.8 16.1 0.00 0.00 0.00 26 1025.2
20260906204512 25 103 4.8 19.3 0.00 0.00 0.00 28 1025.2
20260906204004 24 69 4.8 19.3 0.00 0.00 0.00 28 1025.3
20260906203504 24 250 3.2 11.3 0.00 0.00 0.00 28 1025.4
20260906203013 23 318 4.8 16.1 0.00 0.00 0.00 29 1025.4
20260906202505 23 271 8.0 16.1 0.00 0.00 0.00 28 1025.5
20260906202008 23 278 6.4 19.3 0.00 0.00 0.00 28 1025.5
20260906201515 24 162 4.8 19.3 0.00 0.00 0.00 28 1025.7
20260906201005 23 283 3.2 14.5 0.00 0.00 0.00 28 1025.8
20260906200507 23 136 6.4 14.5 0.00 0.00 0.00 27 1025.8
20260906200015 23 348 8.0 14.5 0.00 0.00 0.00 29 1025.9
20260906195508 24 285 6.4 17.7 0.00 0.00 0.00 28 1025.8
20260906195007 24 259 8.0 17.7 0.00 0.00 0.00 27 1025.8
20260906194514 24 310 6.4 14.5 0.00 0.00 0.00 28 1025.9
20260906194008 23 14 1.6 17.7 0.00 0.00 0.00 29 1025.9
20260906193508 23 274 8.0 17.7 0.00 0.00 0.00 29 1026.0
20260906193010 23 259 6.4 16.1 0.00 0.00 0.00 29 1026.0
20260906192507 23 337 6.4 16.1 0.00 0.00 0.00 29 1025.9
20260906192008 23 326 6.4 19.3 0.00 0.00 0.00 29 1026.1
20260906191516 23 160 4.8 35.4 0.00 0.00 0.00 30 1026.3
20260906191007 23 253 1.6 35.4 0.00 0.00 0.00 31 1026.3
20260906190507 23 46 16.1 35.4 0.00 0.00 0.00 30 1026.2
20260906190017 22 5 4.8 19.3 0.00 0.00 0.00 30 1026.5
20260906185509 22 118 8.0 19.3 0.00 0.00 0.00 32 1026.5
20260906185007 23 113 8.0 19.3 0.00 0.00 0.00 31 1026.6
20260906184519 23 32 4.8 16.1 0.00 0.00 0.00 31 1026.6
20260906184007 23 210 8.0 16.1 0.00 0.00 0.00 30 1026.6
20260906183510 22 246 0.0 11.3 0.00 0.00 0.00 31 1026.7
20260906183019 22 343 6.4 14.5 0.00 0.00 0.00 29 1027.1
20260906182506 22 292 3.2 16.1 0.00 0.00 0.00 30 1027.2
20260906182011 22 5 4.8 16.1 0.00 0.00 0.00 32 1027.1
20260906181523 22 122 6.4 16.1 0.00 0.00 0.00 31 1027.2
20260906181009 22 195 1.6 16.1 0.00 0.00 0.00 30 1027.4
20260906180512 22 45 9.7 16.1 0.00 0.00 0.00 31 1027.4
20260906180031 22 15 6.4 12.9 0.00 0.00 0.00 30 1027.7
20260906175508 22 34 6.4 12.9 0.00 0.00 0.00 31 1027.7
20260906175008 22 294 4.8 9.7 0.00 0.00 0.00 32 1027.7
20260906174515 22 39 3.2 9.7 0.00 0.00 0.00 32 1027.7
20260906174010 22 133 4.8 9.7 0.00 0.00 0.00 32 1027.8
20260906173508 21 18 3.2 9.7 0.00 0.00 0.00 34 1027.9
20260906173026 21 261 4.8 14.5 0.00 0.00 0.00 33 1027.9
20260906172507 21 233 1.6 14.5 0.00 0.00 0.00 34 1027.9
20260906172009 21 34 3.2 20.9 0.00 0.00 0.00 33 1028.0
20260906171520 21 117 9.7 20.9 0.00 0.00 0.00 34 1028.2
20260906171011 21 43 3.2 11.3 0.00 0.00 0.00 33 1028.2
20260906170511 21 60 4.8 11.3 0.00 0.00 0.00 33 1028.2
20260906170024 21 41 3.2 16.1 0.00 0.00 0.00 35 1028.2
20260906165515 21 229 0.0 16.1 0.00 0.00 0.00 35 1028.2
20260906165012 21 37 3.2 12.9 0.00 0.00 0.00 35 1028.2
20260906164525 20 221 4.8 12.9 0.00 0.00 0.00 34 1028.2
20260906164006 20 247 3.2 9.7 0.00 0.00 0.00 37 1028.2
20260906163513 20 26 4.8 12.9 0.00 0.00 0.00 35 1028.3
20260906163021 20 128 1.6 17.7 0.00 0.00 0.00 39 1028.3
20260906162513 20 103 3.2 17.7 0.00 0.00 0.00 37 1028.2
20260906162012 19 359 8.0 14.5 0.00 0.00 0.00 38 1028.2
20260906161524 18 43 6.4 9.7 0.00 0.00 0.00 43 1028.2
20260906161011 18 49 4.8 8.0 0.00 0.00 0.00 45 1028.3
20260906160513 17 32 0.0 6.4 0.00 0.00 0.00 52 1028.3
20260906160029 17 27 3.2 6.4 0.00 0.00 0.00 48 1028.3
20260906155514 16 356 1.6 6.4 0.00 0.00 0.00 49 1028.3
20260906155015 16 35 0.0 0.0 0.00 0.00 0.00 51 1028.3
20260906154525 15 309 0.0 0.0 0.00 0.00 0.00 59 1028.3
20260906154010 13 131 0.0 0.0 0.00 0.00 0.00 71 1028.3
20260906153510 13 131 0.0 0.0 0.00 0.00 0.00 72 1028.4
20260906153029 13 132 0.0 0.0 0.00 0.00 0.00 71 1028.3
20260906152511 13 122 0.0 0.0 0.00 0.00 0.00 69 1028.3
20260906152011 12 122 0.0 0.0 0.00 0.00 0.00 73 1028.4
20260906151528 11 124 0.0 0.0 0.00 0.00 0.00 76 1028.5
20260906151014 11 124 0.0 0.0 0.00 0.00 0.00 76 1028.6
20260906150511 11 126 0.0 0.0 0.00 0.00 0.00 75 1028.6
20260906150032 10 127 0.0 0.0 0.00 0.00 0.00 80 1028.5
20260906145508 10 127 0.0 0.0 0.00 0.00 0.00 81 1028.5
20260906145014 9 127 0.0 0.0 0.00 0.00 0.00 83 1028.5
20260906144529 8 127 0.0 0.0 0.00 0.00 0.00 85 1028.5
20260906144011 8 127 0.0 0.0 0.00 0.00 0.00 83 1028.5
20260906143514 8 127 0.0 0.0 0.00 0.00 0.00 86 1028.5
20260906143027 7 127 0.0 0.0 0.00 0.00 0.00 87 1028.5
20260906142514 7 127 0.0 0.0 0.00 0.00 0.00 85 1028.5
20260906142012 6 127 0.0 0.0 0.00 0.00 0.00 84 1028.6
20260906141527 6 127 0.0 0.0 0.00 0.00 0.00 84 1028.5
20260906141015 6 204 0.0 0.0 0.00 0.00 0.00 85 1028.5
20260906140517 6 204 0.0 0.0 0.00 0.00 0.00 86 1028.4
20260906140029 5 204 0.0 0.0 0.00 0.00 0.00 87 1028.4
20260906135515 5 205 0.0 0.0 0.00 0.00 0.00 88 1028.5
20260906135010 4 217 0.0 0.0 0.00 0.00 0.00 90 1028.4
20260906134531 3 217 0.0 0.0 0.00 0.00 0.00 91 1028.5
20260906134014 3 217 0.0 0.0 0.00 0.00 0.00 90 1028.5
20260906133519 3 217 0.0 0.0 0.00 0.00 0.00 89 1028.5
20260906133038 3 217 0.0 0.0 0.00 0.00 0.00 89 1028.4
20260906132514 3 217 0.0 0.0 0.00 0.00 0.00 88 1028.3
20260906132015 3 217 0.0 0.0 0.00 0.00 0.00 89 1028.2
20260906131529 3 217 0.0 3.2 0.00 0.00 0.00 88 1028.2
20260906131015 3 217 0.0 3.2 0.00 0.00 0.00 89 1028.1
20260906130515 3 232 0.0 1.6 0.00 0.00 0.00 91 1028.1
20260906130031 2 232 0.0 3.2 0.00 0.00 0.00 91 1028.1
20260906125516 2 255 0.0 3.2 0.00 0.00 0.00 92 1028.1
20260906125015 2 70 0.0 0.0 0.00 0.00 0.00 92 1028.1
20260906124528 2 70 0.0 0.0 0.00 0.00 0.00 91 1028.2
20260906124018 2 70 0.0 0.0 0.00 0.00 0.00 92 1028.1
20260906123521 2 70 0.0 0.0 0.00 0.00 0.00 92 1028.1
20260906123003 2 70 0.0 0.0 0.00 0.00 0.00 92 1028.0
20260906122501 2 68 0.0 0.0 0.00 0.00 0.00 91 1028.1
20260906122004 2 68 0.0 0.0 0.00 0.00 0.00 90 1028.0
20260906121504 2 68 0.0 0.0 0.00 0.00 0.00 90 1028.0
20260906121003 2 68 0.0 0.0 0.00 0.00 0.00 90 1028.0
20260906120502 2 68 0.0 0.0 0.00 0.00 0.00 90 1028.0
20260906120003 2 68 0.0 0.0 0.00 0.00 0.00 90 1028.0
20260906115504 2 68 0.0 0.0 0.00 0.00 0.00 89 1028.0
20260906115002 2 68 0.0 0.0 0.00 0.00 0.00 88 1028.1
20260906114528 3 68 0.0 0.0 0.00 0.00 0.00 88 1028.1
20260906114004 3 68 0.0 0.0 0.00 0.00 0.00 87 1028.1
20260906113503 3 68 0.0 3.2 0.00 0.00 0.00 86 1028.0
20260906113017 3 65 0.0 3.2 0.00 0.00 0.00 85 1028.0
20260906112502 3 179 0.0 3.2 0.00 0.00 0.00 87 1028.0
20260906112002 3 224 1.6 3.2 0.00 0.00 0.00 87 1028.0
20260906111508 3 245 0.0 3.2 0.00 0.00 0.00 88 1028.1
20260906111002 3 236 0.0 1.6 0.00 0.00 0.00 89 1028.2
20260906110505 3 245 0.0 1.6 0.00 0.00 0.00 89 1028.2
20260906110007 3 244 0.0 1.6 0.00 0.00 0.00 90 1028.1
20260906105502 3 203 0.0 0.0 0.00 0.00 0.00 90 1028.0
20260906105003 3 217 0.0 0.0 0.00 0.00 0.00 90 1028.1
20260906104504 3 217 0.0 0.0 0.00 0.00 0.00 90 1028.1
20260906104008 3 217 0.0 0.0 0.00 0.00 0.00 91 1028.1
20260906103503 2 217 0.0 0.0 0.00 0.00 0.00 91 1028.0
20260906103004 2 217 0.0 0.0 0.00 0.00 0.00 90 1028.1
20260906102506 2 217 0.0 0.0 0.00 0.00 0.00 89 1028.0
20260906102003 2 217 0.0 0.0 0.00 0.00 0.00 88 1028.0
20260906101509 3 217 0.0 0.0 0.00 0.00 0.00 88 1028.0
20260906101004 3 217 0.0 0.0 0.00 0.00 0.00 86 1028.1
20260906100506 3 217 0.0 0.0 0.00 0.00 0.00 86 1028.0
20260906100025 3 217 0.0 0.0 0.00 0.00 0.00 87 1028.0
20260906095503 3 217 0.0 1.6 0.00 0.00 0.00 86 1027.9
20260906095003 3 217 0.0 1.6 0.00 0.00 0.00 85 1027.9
20260906094516 4 217 0.0 3.2 0.00 0.00 0.00 86 1027.9
20260906094002 3 217 0.0 3.2 0.00 0.00 0.00 87 1027.9
20260906093513 3 234 0.0 1.6 0.00 0.00 0.00 88 1028.0
20260906093011 3 202 0.0 0.0 0.00 0.00 0.00 88 1028.0
20260906092502 3 202 0.0 0.0 0.00 0.00 0.00 86 1028.0
20260906092010 3 202 0.0 0.0 0.00 0.00 0.00 86 1028.0
20260906091514 3 202 0.0 0.0 0.00 0.00 0.00 86 1028.0
20260906091002 3 202 0.0 0.0 0.00 0.00 0.00 85 1027.9
20260906090508 4 202 0.0 0.0 0.00 0.00 0.00 83 1027.9
20260906090013 5 202 0.0 1.6 0.00 0.00 0.00 82 1028.0
20260906085509 5 202 0.0 3.2 0.00 0.00 0.00 82 1027.9
20260906085003 4 219 0.0 3.2 0.00 0.00 0.00 84 1027.8
20260906084504 4 206 0.0 0.0 0.00 0.00 0.00 85 1027.7
20260906084007 4 236 0.0 0.0 0.00 0.00 0.00 83 1027.7
20260906083505 5 236 0.0 0.0 0.00 0.00 0.00 83 1027.7
20260906083026 5 255 0.0 0.0 0.00 0.00 0.00 83 1027.7
20260906082507 5 255 0.0 0.0 0.00 0.00 0.00 83 1027.6
20260906082003 5 255 0.0 0.0 0.00 0.00 0.00 82 1027.7
20260906081523 5 255 0.0 1.6 0.00 0.00 0.00 81 1027.7
20260906081005 5 179 0.0 3.2 0.00 0.00 0.00 81 1027.6
20260906080502 5 174 1.6 3.2 0.00 0.00 0.00 82 1027.6
20260906080016 5 229 0.0 0.0 0.00 0.00 0.00 84 1027.7
20260906075504 4 229 0.0 0.0 0.00 0.00 0.00 86 1027.8
20260906075013 4 229 0.0 0.0 0.00 0.00 0.00 86 1027.8
20260906074514 4 229 0.0 0.0 0.00 0.00 0.00 84 1027.9
20260906074002 4 229 0.0 0.0 0.00 0.00 0.00 83 1027.9
20260906073508 5 229 0.0 0.0 0.00 0.00 0.00 81 1027.9
20260906073013 5 229 0.0 1.6 0.00 0.00 0.00 81 1027.9
20260906072503 5 229 0.0 3.2 0.00 0.00 0.00 81 1027.8
20260906072008 5 208 0.0 3.2 0.00 0.00 0.00 82 1027.8
20260906071509 5 208 0.0 3.2 0.00 0.00 0.00 84 1027.8
20260906071011 5 198 0.0 0.0 0.00 0.00 0.00 85 1027.9
20260906070507 5 198 0.0 0.0 0.00 0.00 0.00 83 1027.9
20260906070006 5 198 0.0 1.6 0.00 0.00 0.00 83 1027.9
20260906065509 5 198 0.0 1.6 0.00 0.00 0.00 81 1027.8
20260906065003 6 198 1.6 3.2 0.00 0.00 0.00 78 1027.8
20260906064530 6 198 0.0 3.2 0.00 0.00 0.00 78 1027.8
20260906064011 6 247 0.0 3.2 0.00 0.00 0.00 78 1027.8
20260906063507 6 249 0.0 3.2 0.00 0.00 0.00 80 1027.9
20260906063026 5 190 0.0 0.0 0.00 0.00 0.00 81 1027.9
20260906062505 6 190 0.0 0.0 0.00 0.00 0.00 80 1027.9
20260906062005 6 190 0.0 0.0 0.00 0.00 0.00 78 1027.9
20260906061522 6 190 0.0 1.6 0.00 0.00 0.00 76 1027.9
20260906061002 6 190 0.0 1.6 0.00 0.00 0.00 75 1027.9
20260906060513 7 214 0.0 1.6 0.00 0.00 0.00 76 1027.9
20260906060025 7 212 0.0 1.6 0.00 0.00 0.00 76 1027.8
20260906055503 7 207 1.6 1.6 0.00 0.00 0.00 75 1027.8
20260906055011 7 218 0.0 3.2 0.00 0.00 0.00 75 1027.8
20260906054520 7 218 0.0 3.2 0.00 0.00 0.00 75 1027.7
20260906054015 7 212 0.0 4.8 0.00 0.00 0.00 74 1027.8
20260906053510 7 238 0.0 4.8 0.00 0.00 0.00 74 1027.8
20260906053010 7 245 0.0 0.0 0.00 0.00 0.00 76 1027.7
20260906052512 7 248 0.0 0.0 0.00 0.00 0.00 74 1027.7
20260906052007 7 248 0.0 0.0 0.00 0.00 0.00 73 1027.7
20260906051505 7 238 0.0 0.0 0.00 0.00 0.00 73 1027.7
20260906051011 8 226 0.0 0.0 0.00 0.00 0.00 72 1027.7
20260906050505 8 226 0.0 0.0 0.00 0.00 0.00 71 1027.7
20260906050035 8 226 0.0 3.2 0.00 0.00 0.00 69 1027.7
20260906045511 8 226 0.0 3.2 0.00 0.00 0.00 68 1027.7
20260906045001 8 206 1.6 3.2 0.00 0.00 0.00 69 1027.8
20260906044528 8 220 1.6 1.6 0.00 0.00 0.00 71 1027.6
20260906044006 8 243 0.0 1.6 0.00 0.00 0.00 71 1027.6
20260906043513 8 210 0.0 1.6 0.00 0.00 0.00 70 1027.7
20260906043025 8 210 0.0 1.6 0.00 0.00 0.00 70 1027.7
20260906042507 8 233 0.0 0.0 0.00 0.00 0.00 71 1027.7
20260906042015 8 254 0.0 0.0 0.00 0.00 0.00 71 1027.6
20260906041521 8 254 0.0 1.6 0.00 0.00 0.00 72 1027.7
20260906041005 9 252 0.0 3.2 0.00 0.00 0.00 70 1027.7
20260906040513 9 253 0.0 3.2 0.00 0.00 0.00 69 1027.7
20260906040037 10 256 0.0 4.8 0.00 0.00 0.00 68 1027.7
20260906035514 10 256 3.2 4.8 0.00 0.00 0.00 68 1027.7
20260906035012 10 163 0.0 0.0 0.00 0.00 0.00 67 1027.6
20260906034515 10 162 0.0 0.0 0.00 0.00 0.00 65 1027.7
20260906034015 11 162 0.0 0.0 0.00 0.00 0.00 62 1027.6
20260906033509 11 162 0.0 0.0 0.00 0.00 0.00 60 1027.6
20260906033046 11 196 0.0 0.0 0.00 0.00 0.00 61 1027.5
20260906032511 11 198 0.0 0.0 0.00 0.00 0.00 61 1027.5
20260906032007 11 198 0.0 0.0 0.00 0.00 0.00 61 1027.4
20260906031531 11 198 0.0 1.6 0.00 0.00 0.00 61 1027.4
20260906031011 12 198 0.0 3.2 0.00 0.00 0.00 60 1027.4
20260906030504 12 165 1.6 3.2 0.00 0.00 0.00 59 1027.3
20260906030031 12 206 0.0 3.2 0.00 0.00 0.00 59 1027.2
20260906025509 12 210 0.0 0.0 0.00 0.00 0.00 60 1027.2
20260906025018 12 203 0.0 1.6 0.00 0.00 0.00 61 1027.2
20260906024530 12 137 0.0 1.6 0.00 0.00 0.00 61 1027.1
20260906024009 12 137 0.0 1.6 0.00 0.00 0.00 60 1027.1
20260906023516 13 193 0.0 3.2 0.00 0.00 0.00 57 1027.1
20260906023028 13 206 1.6 4.8 0.00 0.00 0.00 57 1027.0
20260906022503 13 217 1.6 4.8 0.00 0.00 0.00 57 1027.0
20260906022014 13 224 1.6 3.2 0.00 0.00 0.00 58 1026.9
20260906021522 13 203 1.6 4.8 0.00 0.00 0.00 57 1026.9
20260906021006 14 221 1.6 4.8 0.00 0.00 0.00 56 1026.8
20260906020513 14 214 1.6 3.2 0.00 0.00 0.00 56 1026.8
20260906020019 15 227 0.0 0.0 0.00 0.00 0.00 56 1026.8
20260906015503 15 213 0.0 0.0 0.00 0.00 0.00 54 1026.8
20260906015011 15 203 0.0 0.0 0.00 0.00 0.00 55 1026.7
20260906014515 16 205 0.0 0.0 0.00 0.00 0.00 55 1026.7
20260906014016 16 210 0.0 0.0 0.00 0.00 0.00 52 1026.6
20260906013510 17 211 0.0 0.0 0.00 0.00 0.00 49 1026.6
20260906013007 17 214 0.0 0.0 0.00 0.00 0.00 49 1026.6
20260906012517 18 225 0.0 0.0 0.00 0.00 0.00 49 1026.6
20260906012005 18 207 0.0 0.0 0.00 0.00 0.00 46 1026.6
20260906011506 19 229 0.0 0.0 0.00 0.00 0.00 45 1026.6
20260906011009 20 251 0.0 0.0 0.00 0.00 0.00 42 1026.6
20260906010503 21 251 0.0 0.0 0.00 0.00 0.00 41 1026.6
20260906010027 21 251 0.0 3.2 0.00 0.00 0.00 41 1026.7
20260906005510 21 251 0.0 3.2 0.00 0.00 0.00 37 1026.7
20260906005003 22 220 1.6 3.2 0.00 0.00 0.00 35 1026.7
20260906004527 22 220 0.0 4.8 0.00 0.00 0.00 36 1026.7
20260906004009 23 248 1.6 4.8 0.00 0.00 0.00 32 1026.7
20260906003515 23 265 0.0 6.4 0.00 0.00 0.00 34 1026.7
20260906003020 23 272 1.6 6.4 0.00 0.00 0.00 30 1026.7
20260906002504 23 264 0.0 4.8 0.00 0.00 0.00 34 1026.7
20260906002012 22 289 1.6 6.4 0.00 0.00 0.00 32 1026.7
20260906001523 22 283 1.6 8.0 0.00 0.00 0.00 33 1026.8
20260906001003 22 281 3.2 8.0 0.00 0.00 0.00 34 1026.7
20260906000512 22 293 1.6 9.7 0.00 0.00 0.00 37 1026.6
20260906000017 22 263 4.8 9.7 0.00 0.00 0.00 33 1026.6
20260905235515 22 257 3.2 6.4 0.00 0.00 0.00 34 1026.6
20260905235009 22 287 1.6 11.3 0.00 0.00 0.00 33 1026.6
20260905234512 22 299 4.8 11.3 0.00 0.00 0.00 33 1026.6
20260905234012 22 288 3.2 8.0 0.00 0.00 0.00 33 1026.6
20260905233514 22 354 3.2 9.7 0.00 0.00 0.00 33 1026.5
20260905233009 22 280 3.2 11.3 0.00 0.00 0.00 33 1026.4
20260905232512 22 297 6.4 11.3 0.00 0.00 0.00 32 1026.5
20260905232006 22 307 3.2 11.3 0.00 0.00 0.00 31 1026.5
20260905231531 23 265 4.8 8.0 0.00 0.00 0.00 31 1026.5
20260905231010 23 285 3.2 14.5 0.00 0.00 0.00 30 1026.6
20260905230504 23 265 8.0 14.5 0.00 0.00 0.00 30 1026.5
20260905230029 24 287 6.4 9.7 0.00 0.00 0.00 29 1026.4
20260905225510 23 47 3.2 6.4 0.00 0.00 0.00 30 1026.5
20260905225018 23 34 1.6 8.0 0.00 0.00 0.00 30 1026.5
20260905224602 23 260 1.6 8.0 0.00 0.00 0.00 31 1026.5
20260905224007 23 167 1.6 8.0 0.00 0.00 0.00 31 1026.6
20260905223514 23 259 3.2 8.0 0.00 0.00 0.00 30 1026.6
20260905223024 23 123 0.0 11.3 0.00 0.00 0.00 31 1026.5
20260905222503 24 261 1.6 11.3 0.00 0.00 0.00 30 1026.5
20260905222014 24 343 3.2 8.0 0.00 0.00 0.00 31 1026.5